Flag for Canada Weather past 2 weeks in Richmond, British Columbia, Canada

Now
55 °F

Partly sunny.


Feels Like: 53 °F
Forecast: 50 / 63 °F
Wind: 9 mph from East

Location: Vancouver International Air-Port

Current Time: Apr 26, 2015 at 6:55:54 PM

Latest Report: Apr 26, 2015 at 6:00 PM


Visibility: 25 mi

Pressure: 30.21 "Hg

Humidity: 55%

Dew point: 39 °F

Location of RichmondLocation

Historic Weather in Richmond — Graph

°F

Richmond temperature yesterday

Maximum temperature yesterday: 52 °F (at 2:00 PM)
Minimum temperature yesterday: 43 °F (at 12:00 AM)
Average temperature yesterday: 47 °F

Past Weeks' High & Low Weather Summary

 TemperatureHumidityPressure
High63 °F (Apr 20, 3:00 PM)94% (Apr 17, 6:00 AM)30.54 "Hg (Apr 17, 6:00 AM)
Low39 °F (Apr 15, 4:00 AM)31% (Apr 22, 4:00 PM)29.71 "Hg (Apr 24, 5:00 AM)
Average49 °F76%30.09 "Hg
* Reported Apr 11 5:00 PM — Apr 26 5:00 PM, Richmond, Weather by CustomWeather, © 2015

Note: Actual official high and low records may vary slightly from our data, if they occured in-between our weather recording intervals... More about our weather records

Advertising

Richmond weather history for previous 24 hours

 ConditionsComfort  
Time TempWeatherWind HumidityBarometerVisibility
5:00 PM
Sun, Apr 26
57 °FMostly cloudy.13 mph48%30.21 "Hg25 mi
4:00 PM57 °FMostly cloudy.14 mph51%30.21 "Hg25 mi
3:00 PM55 °FMostly cloudy.14 mph55%30.22 "Hg25 mi
2:00 PM55 °FOvercast.15 mph47%30.21 "Hg25 mi
1:00 PM55 °FOvercast.13 mph59%30.21 "Hg25 mi
12:00 PM54 °FPartly sunny.9 mph58%30.21 "Hg25 mi
11:00 AM54 °FOvercast.12 mph58%30.20 "Hg25 mi
10:00 AM54 °FOvercast.9 mph63%30.19 "Hg25 mi
9:00 AM50 °FMostly cloudy.7 mph71%30.18 "Hg25 mi
8:00 AM46 °FPartly sunny.7 mph82%30.16 "Hg25 mi
7:00 AM45 °FMore clouds than sun.8 mph87%30.15 "Hg20 mi
6:00 AM43 °FPassing clouds.8 mph87%30.14 "Hg20 mi
5:00 AM43 °FPassing clouds.8 mph87%30.13 "Hg20 mi
4:00 AM45 °FPassing clouds.9 mph81%30.11 "Hg20 mi
3:00 AM43 °FPassing clouds.7 mph87%30.11 "Hg20 mi
2:00 AM45 °FPassing clouds.8 mph81%30.10 "Hg20 mi
1:00 AM45 °FPassing clouds.8 mph81%30.09 "Hg20 mi
12:00 AM46 °FPassing clouds.8 mph82%30.08 "Hg20 mi
11:00 PM
Sat, Apr 25
46 °FPassing clouds.8 mph76%30.06 "Hg20 mi
10:00 PM46 °FPassing clouds.6 mph71%30.05 "Hg20 mi
9:00 PM48 °FPassing clouds.7 mph71%30.05 "Hg30 mi
8:00 PM50 °FPassing clouds.7 mph67%30.03 "Hg30 mi
7:00 PM52 °FPassing clouds.8 mph62%30.02 "Hg20 mi
6:00 PM52 °FPassing clouds.8 mph62%30.01 "Hg30 mi
Weather by CustomWeather, © 2015

See weather overviewHow to use our weather pages